Location: Eldred Sherwood Park Lake Dam
(42.9416°N, 93.5655°W)
Time: 12:06:53
(UTC+00:00)

Tiros 1 - Visible Passes

Search period start: 07 February 2026 00:00
Search period end: 17 February 2026 00:00
Orbit: 618 x 649 km, 48.4° (Epoch: 7 February)

Date Brightness Start Highest point End Pass type
(mag) Time Alt. Az. Time Alt. Az. Time Alt. Az.
7 Feb 7.1 00:07:45 10° WNW 00:12:20 86° NNE 00:16:57 10° ESE visible
7 Feb 9.0 01:50:11 10° W 01:53:52 24° SW 01:55:38 19° S visible
8 Feb 7.7 00:29:30 10° WNW 00:33:58 55° SSW 00:38:28 10° SE visible
8 Feb 9.9 02:13:40 10° WSW 02:15:07 11° SW 02:16:34 10° SSW visible
9 Feb 8.9 00:51:30 10° W 00:55:26 29° SW 00:59:24 10° SSE visible
10 Feb 9.9 01:14:15 10° W 01:16:44 14° SW 01:19:13 10° SSW visible
12 Feb 9.8 00:15:15 10° W 00:18:19 18° SW 00:21:26 10° S visible
